Seattle Boeing, WA
on Tuesday, November 6, 2012

Tuesday
Previous Day Next Day
Daily Summary
 ActualAverage (KSEA)Record (KSEA)
Temperature
Mean Temperature °F 48°F  
Max Temperature 57°F 53°F 65°F (1976)
Min Temperature 44°F 42°F 30°F (2003)
Degree Days
Heating Degree Days 14 17  
Month to date heating degree days 101  
Since 1 July heating degree days 698  
Cooling Degree Days 0 0  
Month to date cooling degree days 0  
Year to date cooling degree days 189  
Moisture
Dew Point 46°F   
Average Humidity 85    
Maximum Humidity 97    
Minimum Humidity 74    
Precipitation
Precipitation 0.01 in 0.21 in 3.29 in (2006)
Month to date precipitation 1.19  
Year to date precipitation 26.76  
Snow
Snow 0.00 in in 0.20 in (1975)
Month to date snowfall  
Since 1 July snowfall  
Snow Depth in   
Wind
Wind Speed 5 mph   
Max Wind Speed 21 mph   
Max Gust Speed 28 mph   
Visibility 8 miles   
Events     

Key: T is trace of precipitation, MM is missing value
Source: NWS Daily Summary
Time(PST)TemperatureDew PointHumidity Pressure Visibility Wind DirectionWind SpeedGust SpeedPrecipitationEvents Conditions
12:53 AM 46.9°F 44.1°F 90% 30.16 in 10.0 miles Calm Calm - N/A   Scattered Clouds
1:53 AM 48.0°F 45.0°F 89% 30.14 in 10.0 miles Calm Calm - N/A   Scattered Clouds
2:53 AM 46.9°F 44.1°F 90% 30.12 in 10.0 miles Calm Calm - N/A   Scattered Clouds
3:53 AM 46.4°F 44.6°F 93% 30.10 in 10.0 miles Calm Calm - N/A   Clear
4:53 AM 44.1°F 43.0°F 96% 30.08 in 10.0 miles Calm Calm - N/A   Partly Cloudy
5:25 AM 44.6°F 42.8°F 93% 30.08 in 2.0 miles SE 3.5 mph - N/A   Overcast
5:53 AM 46.0°F 45.0°F 96% 30.06 in 1.0 miles SE 3.5 mph - N/A   Overcast
6:53 AM 46.0°F 45.0°F 96% 30.06 in 1.0 miles Calm Calm - N/A   Overcast
7:50 AM 46.4°F 44.6°F 93% 30.05 in 2.0 miles SE 4.6 mph - N/A   Overcast
7:53 AM 46.0°F 45.0°F 96% 30.05 in 2.0 miles SE 3.5 mph - N/A   Overcast
8:00 AM 46.4°F 44.6°F 93% 30.05 in 3.0 miles SE 3.5 mph - N/A   Overcast
8:53 AM 46.9°F 46.0°F 97% 30.04 in 3.0 miles SSE 4.6 mph - N/A   Overcast
9:53 AM 48.9°F 46.0°F 90% 30.02 in 6.0 miles Variable 3.5 mph - N/A   Overcast
9:59 AM 48.2°F 46.4°F 93% 30.02 in 6.0 miles Variable 4.6 mph - N/A   Mostly Cloudy
10:13 AM 50.0°F 46.4°F 87% 30.01 in 7.0 miles SE 5.8 mph - N/A   Mostly Cloudy
10:53 AM 54.0°F 48.0°F 80% 30.01 in 10.0 miles Variable 5.8 mph - N/A   Mostly Cloudy
11:53 AM 55.0°F 48.0°F 77% 29.96 in 10.0 miles SE 10.4 mph - N/A   Mostly Cloudy
12:53 PM 55.0°F 48.0°F 77% 29.97 in 10.0 miles South 4.6 mph - N/A   Mostly Cloudy
1:53 PM 57.0°F 50.0°F 77% 29.97 in 10.0 miles South 10.4 mph - N/A   Overcast
2:53 PM 57.0°F 48.9°F 74% 29.97 in 10.0 miles SSW 9.2 mph 19.6 mph N/A   Overcast
3:53 PM 55.9°F 50.0°F 80% 29.98 in 10.0 miles SSE 20.7 mph 26.5 mph N/A   Mostly Cloudy
4:53 PM 55.9°F 51.1°F 84% 29.96 in 10.0 miles South 13.8 mph 25.3 mph 0.01 in   Overcast
5:53 PM 55.9°F 48.0°F 75% 29.96 in 10.0 miles South 11.5 mph 21.9 mph 0.00 in   Mostly Cloudy
6:53 PM 55.0°F 48.0°F 77% 29.97 in 10.0 miles SSW 10.4 mph 19.6 mph N/A   Scattered Clouds
7:08 PM 55.4°F 48.2°F 77% 29.97 in 10.0 miles SSW 15.0 mph 24.2 mph N/A   Mostly Cloudy
7:17 PM 55.4°F 48.2°F 77% 29.97 in 10.0 miles SSW 12.7 mph 27.6 mph N/A   Scattered Clouds
7:53 PM 54.0°F 46.9°F 77% 29.98 in 10.0 miles South 15.0 mph 23.0 mph N/A   Clear
8:53 PM 53.1°F 46.0°F 77% 29.99 in 10.0 miles South 15.0 mph 23.0 mph N/A   Clear
9:53 PM 53.1°F 45.0°F 74% 30.02 in 10.0 miles SSW 8.1 mph 19.6 mph N/A   Partly Cloudy
10:53 PM 53.1°F 45.0°F 74% 30.02 in 10.0 miles SSW 8.1 mph - N/A   Partly Cloudy
11:53 PM 52.0°F 45.0°F 77% 30.03 in 10.0 miles South 12.7 mph 24.2 mph N/A   Clear
Moon Phase
Nov. 06 Nov. 06 Nov. 13 Nov. 20 Nov. 28
Sunrise:07:01 AM (PST) Moon Rise:11:34 PM (PST)11/6
Sunset:04:43 PM (PST) Moon Set:12:52 PM (PST)11/6

Copyright © 2014 The Weather Underground, Inc.